Location: Dziadowski
(50.3833°N, 20.0333°E)
Time: 23:43:11
(UTC+00:00)

CENTAUR R/B - Pass Details

Date: 18 January 2026
Orbit: 629 x 1552 km, 63.4° (Epoch: 16 February)

Event Time Altitude Azimuth Distance (km) Brightness Sun altitude
Rises 05:21:23 0° 218° (SW) 3,237 5.0 -10.9°
Reaches altitude 10° 05:23:33 10° 217° (SW) 2,411 4.4 -10.6°
Maximum altitude 05:29:09 83° 130° (SE) 972 2.6 -9.7°
Drops below altitude 10° 05:36:20 10° 44° (NE) 3,062 5.4 -8.7°
Sets 05:39:23 0° 44° (NE) 4,173 6.1 -8.2°
